Madison, SD

3:49 PM CST on December 09, 2019 (GMT -0600)
Madison Municipal

Weather History for KMDS - October, 2019

Change the Weather History Date:

Friday, October 18, 2019

  Actual Average Record
Temperature  
Mean Temperature 56 °F -  
Max Temperature 66 °F 56 °F 68 °F (2015)
Min Temperature 46 °F 33 °F 28 °F (2013)
Degree Days  
Heating Degree Days 9    
Growing Degree Days 6 (Base 50)    
Moisture  
Dew Point 46 °F    
Average Humidity 77    
Maximum Humidity 100    
Minimum Humidity 46    
Precipitation  
Precipitation 0.00 in - - ()
Sea Level Pressure  
Sea Level Pressure 29.53 in    
Wind  
Wind Speed 16 mph ()    
Max Wind Speed 28 mph    
Max Gust Speed 36 mph    
Visibility 10.0 miles    
Events      
Averages and records for this station are not official NWS values.
T = Trace of Precipitation, MM = Missing Value Source: Averaged Metar Reports

Daily Weather History Graph

Daily Weather History Graph

Search for Another Location

Airport or City:

Astronomy

Oct. 18, 2019 Rise Set
Actual Time 7:46 AM CDT 6:39 PM CDT
Civil Twilight 7:17 AM CDT 7:09 PM CDT
Nautical Twilight 6:43 AM CDT 7:42 PM CDT
Astronomical Twilight 6:10 AM CDT 8:15 PM CDT
Moon 9:49 PM CDT (10/18) 12:28 PM CDT (10/18)
Length of Visible Light 11h 51m
Length of Day
10h 53m
Waning Gibbous, 78% of the Moon is Illuminated
Oct 18
Waning Gibbous
Oct 21
Last Quarter
Oct 27
New
Nov 4
First Quarter
Nov 12
Full

Hourly Weather History & Observations

Time (CDT) Temp. Windchill Dew Point Humidity Pressure Visibility Wind Dir Wind Speed Gust Speed Precip Events Conditions
12:00 AM 50.0 °F - 44.6 °F 82% 29.66 in 10.0 mi SSE 16.1 mph 24.2 mph N/A   Clear
12:15 AM 50.0 °F - 44.6 °F 82% 29.66 in 10.0 mi South 17.3 mph 21.9 mph N/A   Clear
12:35 AM 50.0 °F - 44.6 °F 82% 29.65 in 10.0 mi SSE 15.0 mph 21.9 mph N/A   Clear
1:15 AM 50.0 °F - 46.4 °F 87% 29.65 in 10.0 mi SSE 16.1 mph 21.9 mph N/A   Clear
1:35 AM 50.0 °F - 46.4 °F 87% 29.64 in 10.0 mi South 15.0 mph 20.7 mph N/A   Clear
1:40 AM 50.0 °F - 46.4 °F 87% 29.64 in 10.0 mi SSE 13.8 mph 20.7 mph N/A   Clear
1:55 AM 50.0 °F - 46.4 °F 87% 29.63 in 10.0 mi SSE 15.0 mph 21.9 mph N/A   Clear
2:00 AM 50.0 °F - 46.4 °F 87% 29.63 in 10.0 mi SSE 15.0 mph 21.9 mph N/A   Clear
2:15 AM 50.0 °F - 46.4 °F 87% 29.62 in 10.0 mi SSE 15.0 mph 23.0 mph N/A   Clear
2:35 AM 48.2 °F - 46.4 °F 93% 29.61 in 10.0 mi SSE 15.0 mph 20.7 mph N/A   Clear
2:55 AM 48.2 °F - 46.4 °F 93% 29.61 in 10.0 mi SSE 17.3 mph 26.5 mph N/A   Clear
3:15 AM 48.2 °F - 46.4 °F 93% 29.60 in 10.0 mi SSE 15.0 mph 24.2 mph N/A   Clear
3:20 AM 48.2 °F - 46.4 °F 93% 29.60 in 10.0 mi SSE 13.8 mph 24.2 mph N/A   Clear
3:35 AM 48.2 °F - 46.4 °F 93% 29.59 in 10.0 mi SSE 16.1 mph 24.2 mph N/A   Clear
3:55 AM 48.2 °F - 46.4 °F 93% 29.59 in 10.0 mi South 16.1 mph 24.2 mph N/A   Clear
4:00 AM 48.2 °F - 46.4 °F 93% 29.58 in 10.0 mi SSE 16.1 mph 24.2 mph N/A   Clear
4:15 AM 48.2 °F - 48.2 °F 100% 29.58 in 10.0 mi SSE 16.1 mph 23.0 mph N/A   Clear
4:20 AM 48.2 °F - 48.2 °F 100% 29.58 in 10.0 mi SSE 17.3 mph 23.0 mph N/A   Clear
4:35 AM 48.2 °F - 46.4 °F 93% 29.57 in 10.0 mi SSE 12.7 mph 25.3 mph N/A   Clear
4:55 AM 48.2 °F - 48.2 °F 100% 29.56 in 10.0 mi SSE 16.1 mph 25.3 mph N/A   Clear
5:00 AM 48.2 °F - 48.2 °F 100% 29.56 in 10.0 mi SSE 15.0 mph 21.9 mph N/A   Clear
5:15 AM 48.2 °F - 48.2 °F 100% 29.56 in 10.0 mi South 17.3 mph 23.0 mph N/A   Clear
5:20 AM 48.2 °F - 48.2 °F 100% 29.56 in 10.0 mi South 17.3 mph 21.9 mph N/A   Clear
5:35 AM 48.2 °F - 48.2 °F 100% 29.55 in 10.0 mi SSE 16.1 mph 23.0 mph N/A   Clear
5:55 AM 48.2 °F - 48.2 °F 100% 29.55 in 10.0 mi SSE 16.1 mph 24.2 mph N/A   Clear
6:00 AM 48.2 °F - 48.2 °F 100% 29.55 in 10.0 mi South 17.3 mph 24.2 mph N/A   Clear
6:15 AM 46.4 °F 39.5 °F 46.4 °F 100% 29.55 in 10.0 mi South 17.3 mph 21.9 mph N/A   Clear
6:20 AM 46.4 °F 39.5 °F 46.4 °F 100% 29.55 in 10.0 mi South 17.3 mph 25.3 mph N/A   Clear
6:35 AM 46.4 °F 39.2 °F 46.4 °F 100% 29.54 in 10.0 mi South 18.4 mph 24.2 mph N/A   Clear
6:55 AM 46.4 °F 39.2 °F 46.4 °F 100% 29.53 in 10.0 mi South 18.4 mph 25.3 mph N/A   Clear
7:00 AM 46.4 °F 39.2 °F 46.4 °F 100% 29.53 in 10.0 mi South 18.4 mph 25.3 mph N/A   Clear
7:15 AM 46.4 °F 39.0 °F 46.4 °F 100% 29.53 in 10.0 mi South 19.6 mph 25.3 mph N/A   Clear
7:20 AM 46.4 °F 39.2 °F 46.4 °F 100% 29.53 in 10.0 mi South 18.4 mph 26.5 mph N/A   Clear
7:35 AM 46.4 °F 39.2 °F 46.4 °F 100% 29.53 in 10.0 mi South 18.4 mph 25.3 mph N/A   Clear
7:40 AM 48.2 °F - 48.2 °F 100% 29.53 in 10.0 mi South 19.6 mph 25.3 mph N/A   Clear
7:55 AM 46.4 °F 39.0 °F 46.4 °F 100% 29.52 in 10.0 mi South 19.6 mph 24.2 mph N/A   Clear
8:00 AM 46.4 °F 39.0 °F 46.4 °F 100% 29.52 in 10.0 mi South 19.6 mph 24.2 mph N/A   Clear
8:15 AM 46.4 °F 39.5 °F 46.4 °F 100% 29.51 in 10.0 mi SSE 17.3 mph 25.3 mph N/A   Clear
8:35 AM 48.2 °F - 48.2 °F 100% 29.51 in 10.0 mi SSE 17.3 mph 23.0 mph N/A   Clear
8:40 AM - - - N/A% - 10.0 mi North - - N/A   Unknown
9:00 AM - - - N/A% - - North - - N/A   Unknown
9:15 AM 50.0 °F - 48.2 °F 94% 29.50 in 10.0 mi SSE 20.7 mph 28.8 mph N/A   Unknown
9:35 AM 50.0 °F - 48.2 °F 94% 29.50 in 10.0 mi South 19.6 mph 26.5 mph N/A   Clear
9:40 AM 50.0 °F - 48.2 °F 94% 29.50 in 10.0 mi South 20.7 mph 25.3 mph N/A   Clear
9:55 AM 51.8 °F - 48.2 °F 88% 29.50 in 10.0 mi South 20.7 mph 28.8 mph N/A   Clear
10:00 AM 53.6 °F - 48.2 °F 82% 29.50 in 10.0 mi South 18.4 mph 28.8 mph N/A   Clear
10:15 AM 53.6 °F - 46.4 °F 77% 29.49 in 10.0 mi South 23.0 mph 27.6 mph N/A   Clear
10:35 AM 55.4 °F - 46.4 °F 72% 29.48 in 10.0 mi South 21.9 mph 29.9 mph N/A   Clear
10:40 AM 55.4 °F - 46.4 °F 72% 29.48 in 10.0 mi South 20.7 mph 29.9 mph N/A   Clear
10:55 AM 57.2 °F - 46.4 °F 67% 29.47 in 10.0 mi South 21.9 mph 26.5 mph N/A   Clear
11:00 AM 57.2 °F - 46.4 °F 67% 29.47 in 10.0 mi South 21.9 mph 26.5 mph N/A   Clear
11:15 AM 57.2 °F - 46.4 °F 67% 29.47 in 10.0 mi South 20.7 mph 31.1 mph N/A   Clear
11:35 AM 59.0 °F - 46.4 °F 63% 29.46 in 10.0 mi South 23.0 mph 29.9 mph N/A   Clear
11:40 AM 59.0 °F - 46.4 °F 63% 29.46 in 10.0 mi South 20.7 mph 29.9 mph N/A   Clear
11:55 AM 59.0 °F - 46.4 °F 63% 29.44 in 10.0 mi South 21.9 mph 29.9 mph N/A   Clear
12:00 PM 60.8 °F - 46.4 °F 59% 29.44 in 10.0 mi South 24.2 mph 31.1 mph N/A   Clear
12:15 PM 60.8 °F - 46.4 °F 59% 29.44 in 10.0 mi South 21.9 mph 29.9 mph N/A   Clear
12:20 PM 60.8 °F - 46.4 °F 59% 29.44 in 10.0 mi South 24.2 mph 32.2 mph N/A   Clear
12:35 PM 62.6 °F - 46.4 °F 55% 29.42 in 10.0 mi South 24.2 mph 31.1 mph N/A   Clear
12:40 PM 62.6 °F - 46.4 °F 55% 29.42 in 10.0 mi South 24.2 mph 31.1 mph N/A   Clear
12:55 PM 62.6 °F - 46.4 °F 55% 29.42 in 10.0 mi South 26.5 mph 33.4 mph N/A   Clear
1:00 PM 62.6 °F - 46.4 °F 55% 29.42 in 10.0 mi South 26.5 mph 33.4 mph N/A   Clear
1:15 PM 62.6 °F - 46.4 °F 55% 29.41 in 10.0 mi South 23.0 mph 31.1 mph N/A   Clear
1:20 PM 62.6 °F - 46.4 °F 55% 29.41 in 10.0 mi South 25.3 mph 33.4 mph N/A   Clear
1:35 PM 64.4 °F - 46.4 °F 52% 29.42 in 10.0 mi South 27.6 mph 33.4 mph N/A   Clear
1:40 PM 64.4 °F - 46.4 °F 52% 29.41 in 10.0 mi South 25.3 mph 33.4 mph N/A   Clear
1:55 PM 64.4 °F - 46.4 °F 52% 29.41 in 10.0 mi South 26.5 mph 34.5 mph N/A   Clear
2:00 PM 64.4 °F - 46.4 °F 52% 29.42 in 10.0 mi SSW 21.9 mph 34.5 mph N/A   Clear
2:15 PM 64.4 °F - 46.4 °F 52% 29.42 in 10.0 mi SSW 23.0 mph 34.5 mph N/A   Clear
2:35 PM 64.4 °F - 46.4 °F 52% 29.43 in 10.0 mi SSW 21.9 mph 29.9 mph N/A   Partly Cloudy
2:55 PM 64.4 °F - 46.4 °F 52% 29.42 in 10.0 mi SSW 23.0 mph 28.8 mph N/A   Mostly Cloudy
3:15 PM 66.2 °F - 44.6 °F 46% 29.42 in 10.0 mi SSW 25.3 mph 31.1 mph N/A   Scattered Clouds
3:20 PM 66.2 °F - 44.6 °F 46% 29.42 in 10.0 mi SSW 24.2 mph 35.7 mph N/A   Partly Cloudy
3:35 PM 66.2 °F - 44.6 °F 46% 29.43 in 10.0 mi SSW 20.7 mph 32.2 mph N/A   Clear
3:55 PM 66.2 °F - 44.6 °F 46% 29.44 in 10.0 mi SW 17.3 mph 28.8 mph N/A   Clear
4:15 PM 66.2 °F - 44.6 °F 46% 29.44 in 10.0 mi SW 16.1 mph 24.2 mph N/A   Clear
4:20 PM 66.2 °F - 44.6 °F 46% 29.44 in 10.0 mi SW 15.0 mph 24.2 mph N/A   Clear
4:35 PM 66.2 °F - 44.6 °F 46% 29.44 in 10.0 mi SW 16.1 mph 26.5 mph N/A   Clear
4:55 PM 64.4 °F - 44.6 °F 49% 29.45 in 10.0 mi WSW 13.8 mph 18.4 mph N/A   Clear
5:15 PM 64.4 °F - 44.6 °F 49% 29.47 in 10.0 mi WSW 15.0 mph - N/A   Clear
5:20 PM 64.4 °F - 44.6 °F 49% 29.47 in 10.0 mi WSW 15.0 mph - N/A   Clear
5:35 PM 62.6 °F - 44.6 °F 52% 29.48 in 10.0 mi West 11.5 mph 19.6 mph N/A   Clear
5:40 PM 62.6 °F - 44.6 °F 52% 29.48 in 10.0 mi West 13.8 mph 19.6 mph N/A   Clear
5:55 PM 62.6 °F - 44.6 °F 52% 29.49 in 10.0 mi West 11.5 mph - N/A   Clear
6:15 PM 60.8 °F - 44.6 °F 55% 29.50 in 10.0 mi West 10.4 mph - N/A   Clear
6:20 PM 59.0 °F - 44.6 °F 59% 29.50 in 10.0 mi West 9.2 mph - N/A   Clear
6:35 PM 57.2 °F - 44.6 °F 63% 29.51 in 10.0 mi West 6.9 mph - N/A   Clear
6:40 PM 57.2 °F - 44.6 °F 63% 29.51 in 10.0 mi West 8.1 mph - N/A   Clear
6:55 PM 57.2 °F - 44.6 °F 63% 29.52 in 10.0 mi West 8.1 mph - N/A   Clear
7:20 PM 55.4 °F - 48.2 °F 77% 29.53 in 10.0 mi NW 13.8 mph 19.6 mph N/A   Clear
7:35 PM 53.6 °F - 48.2 °F 82% 29.54 in 10.0 mi NW 10.4 mph - N/A   Clear
7:40 PM 53.6 °F - 48.2 °F 82% 29.55 in 10.0 mi NW 10.4 mph - N/A   Clear
7:55 PM 53.6 °F - 50.0 °F 88% 29.56 in 10.0 mi WNW 9.2 mph - N/A   Clear
8:00 PM 53.6 °F - 50.0 °F 88% 29.56 in 10.0 mi WNW 9.2 mph - N/A   Clear
8:15 PM 53.6 °F - 50.0 °F 88% 29.57 in 10.0 mi WNW 11.5 mph - N/A   Clear
8:20 PM 53.6 °F - 50.0 °F 88% 29.57 in 10.0 mi WNW 11.5 mph - N/A   Clear
8:35 PM 53.6 °F - 50.0 °F 88% 29.59 in 10.0 mi WNW 13.8 mph - N/A   Clear
8:55 PM 53.6 °F - 50.0 °F 88% 29.59 in 10.0 mi WNW 11.5 mph - N/A   Clear
9:00 PM 53.6 °F - 50.0 °F 88% 29.59 in 10.0 mi WNW 11.5 mph - N/A   Clear
9:15 PM 53.6 °F - 50.0 °F 88% 29.60 in 10.0 mi WNW 9.2 mph - N/A   Clear
9:35 PM 51.8 °F - 50.0 °F 94% 29.61 in 10.0 mi WNW 9.2 mph - N/A   Partly Cloudy
9:55 PM 53.6 °F - 48.2 °F 82% 29.62 in 10.0 mi NW 11.5 mph - N/A   Mostly Cloudy
10:00 PM 53.6 °F - 48.2 °F 82% 29.62 in 10.0 mi NW 12.7 mph - N/A   Mostly Cloudy
10:15 PM 53.6 °F - 46.4 °F 77% 29.63 in 10.0 mi WNW 11.5 mph - N/A   Scattered Clouds
10:35 PM 51.8 °F - 44.6 °F 76% 29.63 in 10.0 mi NW 9.2 mph - N/A   Scattered Clouds
10:55 PM 51.8 °F - 42.8 °F 71% 29.63 in 10.0 mi NW 16.1 mph 20.7 mph N/A   Mostly Cloudy
11:00 PM 51.8 °F - 41.0 °F 67% 29.64 in 10.0 mi WNW 12.7 mph 20.7 mph N/A   Mostly Cloudy
11:15 PM 51.8 °F - 41.0 °F 67% 29.65 in 10.0 mi WNW 11.5 mph 21.9 mph N/A   Scattered Clouds
11:35 PM 50.0 °F - 41.0 °F 71% 29.66 in 10.0 mi WNW 12.7 mph - N/A   Scattered Clouds
11:40 PM 50.0 °F - 41.0 °F 71% 29.66 in 10.0 mi WNW 11.5 mph - N/A   Scattered Clouds
11:55 PM 50.0 °F - 41.0 °F 71% 29.67 in 10.0 mi WNW 12.7 mph - N/A   Partly Cloudy